Weather History for Wellsville, NY

Change the Weather History Date:

Wednesday, March 6, 2013

  Actual Average (KBFD) Record (KBFD)
Temperature  
Mean Temperature 30 °F -  
Max Temperature 36 °F 38 °F 64 °F (1961)
Min Temperature 24 °F 18 °F -10 °F (1978)
Degree Days  
Heating Degree Days 35    
Moisture  
Dew Point 23 °F    
Average Humidity 73    
Maximum Humidity 82    
Minimum Humidity 57    
Precipitation  
Precipitation 0.00 in - - ()
Sea Level Pressure  
Sea Level Pressure 30.00 in    
Wind  
Wind Speed 7 mph (ENE)    
Max Wind Speed 10 mph    
Max Gust Speed 17 mph    
Visibility 10 miles    
Events      
T = Trace of Precipitation, MM = Missing Value Source: NWS Daily Summary

Daily Weather History Graph

Daily Weather History Graph

Search for Another Location

Airport:

Trip Planner

Search our weather history database for the weather conditions in past years. The results will help you decide how hot, cold, wet, or windy it might be!

Date:

Astronomy

Mar. 06, 2013 Rise Set
Actual Time 6:38 AM EST 6:08 PM EST
Civil Twilight 6:10 AM EST 6:36 PM EST
Nautical Twilight 5:38 AM EST 7:08 PM EST
Astronomical Twilight 5:05 AM EST 7:41 PM EST
Moon 2:50 AM EST (3/6) 12:43 PM EST (3/6)
Length of Visible Light 12h 25m
Length of Day
11h 29m
Waning Crescent, 30% of the Moon is Illuminated
Mar 6
Waning Crescent
Mar 11
New
Mar 19
First Quarter
Mar 27
Full
Apr 3
Last Quarter

Hourly Weather History & Observations

Time (EST) Temp. Windchill Dew Point Humidity Pressure Visibility Wind Dir Wind Speed Gust Speed Precip Events Conditions
12:56 AM 24.1 °F 14.4 °F 19.0 °F 81% 29.90 in 10.0 mi ESE 9.2 mph - N/A   Partly Cloudy
1:56 AM 25.0 °F 18.1 °F 19.0 °F 78% 29.89 in 10.0 mi ESE 5.8 mph - N/A   Mostly Cloudy
2:56 AM 26.1 °F 18.4 °F 19.9 °F 78% 29.88 in 10.0 mi East 6.9 mph - N/A   Overcast
3:56 AM 25.0 °F 16.3 °F 19.9 °F 81% 29.88 in 10.0 mi East 8.1 mph - N/A   Clear
4:56 AM 26.1 °F 17.6 °F 19.9 °F 78% 29.90 in 10.0 mi East 8.1 mph - N/A   Clear
5:56 AM 25.0 °F 15.5 °F 19.9 °F 81% 29.93 in 10.0 mi ENE 9.2 mph - N/A   Partly Cloudy
6:21 AM 26.6 °F 19.1 °F 19.4 °F 74% 29.86 in 10.0 mi ENE 6.9 mph - N/A   Overcast
6:56 AM 26.1 °F 17.6 °F 19.9 °F 78% 29.95 in 10.0 mi ENE 8.1 mph - N/A   Overcast
7:56 AM 27.0 °F 23.0 °F 21.0 °F 78% 29.98 in 10.0 mi Variable 3.5 mph - N/A   Overcast
8:09 AM 26.6 °F 20.0 °F 21.2 °F 80% 29.90 in 10.0 mi ENE 5.8 mph - N/A   Overcast
8:34 AM 28.4 °F 21.2 °F 21.2 °F 74% 29.91 in 10.0 mi ENE 6.9 mph - N/A   Overcast
9:56 AM 30.9 °F 22.8 °F 21.9 °F 69% 30.00 in 10.0 mi ENE 9.2 mph 17.3 mph N/A   Overcast
10:56 AM 32.0 °F 26.4 °F 23.0 °F 69% 30.02 in 10.0 mi ENE 5.8 mph - N/A   Overcast
11:56 AM 35.1 °F 27.9 °F 23.0 °F 61% 30.03 in 10.0 mi East 9.2 mph - N/A   Overcast
12:56 PM 36.0 °F 29.6 °F 21.9 °F 57% 30.03 in 10.0 mi East 8.1 mph - N/A   Overcast
1:56 PM 36.0 °F 29.6 °F 21.9 °F 57% 30.03 in 10.0 mi NE 8.1 mph - N/A   Overcast
2:56 PM 35.1 °F 28.6 °F 23.0 °F 61% 30.03 in 10.0 mi NE 8.1 mph - N/A   Overcast
3:56 PM 35.1 °F 27.9 °F 24.1 °F 64% 30.05 in 10.0 mi NE 9.2 mph - N/A   Overcast
4:21 PM 33.8 °F 25.8 °F 24.8 °F 70% 29.99 in 10.0 mi NE 10.4 mph - N/A   Overcast
4:54 PM 33.8 °F 26.4 °F 24.8 °F 70% 30.00 in 10.0 mi NE 9.2 mph - N/A   Overcast
4:56 PM 34.0 °F 26.6 °F 25.0 °F 70% 30.08 in 10.0 mi NE 9.2 mph - N/A   Overcast
5:56 PM 33.1 °F 26.1 °F 26.1 °F 75% 30.10 in 10.0 mi NE 8.1 mph - N/A   Overcast
6:56 PM 33.1 °F 26.9 °F 26.1 °F 75% 30.12 in 10.0 mi NNE 6.9 mph - N/A   Overcast
7:56 PM 32.0 °F 25.6 °F 26.1 °F 79% 30.11 in 10.0 mi NNE 6.9 mph - N/A   Overcast
8:56 PM 32.0 °F 25.6 °F 25.0 °F 75% 30.11 in 10.0 mi ENE 6.9 mph - N/A   Overcast
9:56 PM 32.0 °F 27.5 °F 25.0 °F 75% 30.12 in 10.0 mi NNE 4.6 mph - N/A   Overcast
10:39 PM 32.0 °F 27.5 °F 24.8 °F 75% 30.05 in 10.0 mi North 4.6 mph - N/A   Overcast
10:56 PM 32.0 °F - 26.1 °F 79% 30.12 in 10.0 mi Calm Calm - N/A   Overcast
11:56 PM 30.9 °F - 26.1 °F 82% 30.12 in 10.0 mi Calm Calm - N/A   Overcast